Regional Weather Roundup
Issued by NWS

Home | Current Version | Previous Version | Graphics & Text | Print | Product List | Glossary On
Versions: 1 2 3 4 5 6 7 8 9 10 11 12 13 14 15 16 17 18 19 20 21 22 23 24 25 26 27 28 29 30 31 32 33 34 35 36 37 38 39 40 41 42 43 44 45 46 47 48 49 50
000
ASUS43 KDTX 151201
RWRMI
MICHIGAN HOURLY REGIONAL WEATHER ROUNDUP
NATIONAL WEATHER SERVICE DETROIT/PONTIAC MI
700 AM EST MON JAN 15 2018

NOTE: "FAIR" INDICATES FEW OR NO CLOUDS BELOW 12,000 FEET WITH NO
SIGNIFICANT WEATHER AND/OR OBSTRUCTION TO VISIBILITY.

MIZ047>049-052>055-059>063-066>070-074>076-081>083-151300-
SOUTHEAST LOWER MICHIGAN

CITY           SKY/WX    TMP DP  RH WIND       PRES   REMARKS
ADRIAN         LGT SNOW  13   9  84 SE8       30.33S FOG     WCI   2
6HR MIN TEMP:  13; 6HR MAX TEMP:  14; 6HR PCP: TRACE;

ALMA           LGT SNOW  15  12  89 E8        30.32S WCI   3
6HR MIN TEMP:  14; 6HR MAX TEMP:  16;

ANN ARBOR      LGT SNOW N/A N/A N/A E9        30.33S
BAD AXE        CLOUDY    16   7  68 SE7       30.39S WCI   6
6HR MIN TEMP:  13; 6HR MAX TEMP:  16;

CARO           CLOUDY    15   8  73 E8        30.36S WCI   4
DETROIT CITY   CLOUDY    17   7  64 SE9       30.38F WCI   6
6HR MIN TEMP:  16; 6HR MAX TEMP:  17;

DETROIT        LGT SNOW  17  10  74 SE8       30.37F WCI   7
6HR MIN TEMP:  16; 6HR MAX TEMP:  17; 6HR PCP: TRACE;

FLINT          LGT SNOW  15   9  76 SE8       30.34S WCI   4
6HR MIN TEMP:  14; 6HR MAX TEMP:  15; 6HR PCP:  0.01;

GROSSE ILE     FLURRIES  18   9  70 S10       30.37S WCI   6
6HR MIN TEMP:  16; 6HR MAX TEMP:  18;

HILLSDALE      LGT SNOW  14   9  79 SE8       30.24F WCI   3

CITY           SKY/WX    TMP DP  RH WIND       PRES   REMARKS
JACKSON        LGT SNOW  14  10  84 E13G18    30.27F FOG     WCI   0
6HR MIN TEMP:  13; 6HR MAX TEMP:  15; 6HR PCP: TRACE;

LAMBERTVILLE   LGT SNOW  14  10  86 SE3       30.35S
6HR MIN TEMP:  14; 6HR MAX TEMP:  15;

LANSING        LGT SNOW  14  11  87 SE12      30.29F FOG     WCI   0
6HR MIN TEMP:  13; 6HR MAX TEMP:  14; 6HR PCP:  0.06;

LAPEER         LGT SNOW  15   9  77 SE7       30.36S WCI   5
6HR MIN TEMP:  14; 6HR MAX TEMP:  16;

MASON          LGT SNOW  16  10  77 SE9       30.29S WCI   4
6HR MIN TEMP:  15; 6HR MAX TEMP:  16;

MONROE         LGT SNOW  15  10  80 SE9       30.35F WCI   3
6HR MIN TEMP:  15; 6HR MAX TEMP:  16;

MT. CLEMENS    CLOUDY    17  10  74 SE15      30.37F WCI   2
6HR MIN TEMP:  15; 6HR MAX TEMP:  17;

PONTIAC        LGT SNOW  14   9  80 SE12      30.32F WCI   0
6HR MIN TEMP:  14; 6HR MAX TEMP:  15; 6HR PCP: TRACE;

PORT HOPE        N/A     18   8  65 S13G20    30.39F WCI   5
6HR MIN TEMP:  15; 6HR MAX TEMP:  18;

PORT HURON     CLOUDY    16   9  73 SE10      30.40F WCI   3
TRI CITIES     LGT SNOW  15  12  88 E10       30.35F FOG     WCI   2
6HR MIN TEMP:  15; 6HR MAX TEMP:  16; 6HR PCP: TRACE;

MIDLAND        LGT SNOW  15  11  84 E7        30.35S WCI   6
6HR MIN TEMP:  15; 6HR MAX TEMP:  17;

TROY           LGT SNOW  18   9  69 SE6       30.38S WCI   9
SAGINAW HB     LGT SNOW  16  12  86 SE10      30.35F WCI   3
$$
MIZ043>046-050>051-056>058-064>065-071>073-077>080-151300-
SOUTHWEST LOWER MICHIGAN

CITY           SKY/WX    TMP DP  RH WIND       PRES   REMARKS
BATTLE CREEK   LGT SNOW  14  10  84 SE10      30.24S FOG     WCI   1
6HR MIN TEMP:  14; 6HR MAX TEMP:  15; 6HR PCP: TRACE;

BENTON HARBOR  LGT SNOW  17  12  80 SE12      30.21S VSB 1   WCI   4
6HR MIN TEMP:  17; 6HR MAX TEMP:  18; 6HR PCP:  0.01;

BIG RAPIDS     LGT SNOW  14   8  79 SE12      30.25S WCI   0
6HR MIN TEMP:  14; 6HR MAX TEMP:  15;

COLDWATER      LGT SNOW  15  12  88 SE10      30.25S WCI   2
6HR MIN TEMP:  14; 6HR MAX TEMP:  15;

FREMONT        LGT SNOW  15   8  73 SE9       30.24S WCI   3
6HR MIN TEMP:  15; 6HR MAX TEMP:  16;

GRAND RAPIDS   LGT SNOW  15  10  80 SE10      30.25S WCI   2
6HR MIN TEMP:  15; 6HR MAX TEMP:  16; 6HR PCP:  0.07;

IONIA          LGT SNOW  15  10  83 SE13      30.27S WCI   0
6HR MIN TEMP:  14; 6HR MAX TEMP:  16;

KALAMAZOO      LGT SNOW  15  10  80 SE9G16    30.24S WCI   3
6HR MIN TEMP:  15; 6HR MAX TEMP:  15; 6HR PCP:  0.01;

LUDINGTON      LGT SNOW  15  12  87 SE13G18   30.23S WCI   2
6HR MIN TEMP:  15; 6HR MAX TEMP:  16;

MARSHALL       LGT SNOW  14  10  83 SE7       30.26S WCI   3
6HR MIN TEMP:  13; 6HR MAX TEMP:  14;

MOUNT PLEASANT LGT SNOW  15  10  79 E8        30.31S WCI   4
6HR MIN TEMP:  15; 6HR MAX TEMP:  16;

MUSKEGON       LGT SNOW  16  11  80 SE10      30.24S WCI   4
6HR MIN TEMP:  16; 6HR MAX TEMP:  17; 6HR PCP:  0.05;

SOUTH HAVEN    LGT SNOW  17  12  83 SE8       30.22S WCI   6
$$
MIZ016>042-151300-
NORTHERN LOWER MICHIGAN

CITY           SKY/WX    TMP DP  RH WIND       PRES   REMARKS
ALPENA         CLOUDY    17   9  70 S9        30.39F WCI   6
6HR MIN TEMP:  15; 6HR MAX TEMP:  17;

BEAVER ISLAND  LGT SNOW  17  13  83 SE13G18   30.31R WCI   4
6HR MIN TEMP:  17; 6HR MAX TEMP:  18;

BELLAIRE       LGT SNOW  15  11  85 E7G16     30.32S WCI   5
6HR MIN TEMP:  15; 6HR MAX TEMP:  16;

CADILLAC       LGT SNOW  11   7  84 SE12      30.23S WCI  -3
CHARLEVOIX     LGT SNOW  15  11  83 E10       30.34S WCI   2
6HR MIN TEMP:  15; 6HR MAX TEMP:  17;

FRANKFORT      LGT SNOW  17  11  79 SE10G18   30.25S WCI   4
GAYLORD        LGT SNOW  11   9  92 SE10G21   30.27S FOG     WCI  -3
6HR MIN TEMP:  11; 6HR MAX TEMP:  12; 6HR PCP: TRACE;

GRAYLING       LGT SNOW  12   7  81 E12       30.30S WCI  -2
6HR MIN TEMP:  12; 6HR MAX TEMP:  14;

HARBOR SPRINGS CLOUDY    14  10  81 E9        30.34R HAZE    WCI   2
HOUGHTON LAKE  LGT SNOW  12   8  84 E10       30.29S FOG     WCI  -1
6HR MIN TEMP:  12; 6HR MAX TEMP:  13; 6HR PCP:  0.05;

MANISTEE       LGT SNOW  15  11  83 E12       30.24S FOG     WCI   2
OSCODA         CLOUDY    17   5  59 S12G20    30.39S WCI   4
6HR MIN TEMP:  15; 6HR MAX TEMP:  17;

PELLSTON       CLOUDY    15  10  80 SE12      30.35R HAZE    WCI   2
6HR MIN TEMP:  15; 6HR MAX TEMP:  16; 6HR PCP: TRACE;

ROGERS CITY    CLOUDY    17   8  70 S9G17     30.39F WCI   5
TRAVERSE CITY  LGT SNOW  16   9  74 SE7       30.28S WCI   6
6HR MIN TEMP:  16; 6HR MAX TEMP:  16; 6HR PCP: TRACE;

$$
MIZ007>008-015-151300-
EASTERN UPPER MICHIGAN

CITY           SKY/WX    TMP DP  RH WIND       PRES   REMARKS
KINROSS        CLOUDY    16  10  77 SE13      30.36S WCI   2
6HR MIN TEMP:  14; 6HR MAX TEMP:  16;

MACKINAC ISLAN CLOUDY    16   7  67 SE8G18    30.35S WCI   5
6HR MIN TEMP:  14; 6HR MAX TEMP:  16;

NEWBERRY       CLOUDY    12  11  96 E10       30.32R FOG     WCI  -1
6HR MIN TEMP:  11; 6HR MAX TEMP:  13;

S. S. MARIE    CLOUDY    18   9  68 SE8       30.38R WCI   8
6HR MIN TEMP:  17; 6HR MAX TEMP:  18;

MUNISING         N/A     17  14  88 SE9       30.27R WCI   6
6HR MIN TEMP:  14; 6HR MAX TEMP:  18; 6HR PCP:  0.14;

$$
MIZ004>006-011>014-085-151300-
CENTRAL UPPER MICHIGAN

CITY           SKY/WX    TMP DP  RH WIND       PRES   REMARKS
MANISTIQUE     LGT SNOW  19  18  94 SE18G26   30.28R WCI   4
6HR MIN TEMP:  19; 6HR MAX TEMP:  20;

ESCANABA       LGT SNOW  21  19  92 SE13      30.22R FOG     WCI   9
6HR MIN TEMP:  17; 6HR MAX TEMP:  21; 6HR PCP:  0.01;

MENOMINEE      LGT SNOW  19  17  92 E7        30.19S FOG     WCI  10
6HR MIN TEMP:  17; 6HR MAX TEMP:  19; 6HR PCP:  0.02;

SAWYER-GWINN   LGT SNOW  12  10  92 NE6       30.19S WCI   3
$$
MIZ001>003-009>011-084-151300-
WESTERN UPPER MICHIGAN

CITY           SKY/WX    TMP DP  RH WIND       PRES   REMARKS
IRON MOUNTAIN  CLOUDY    14  10  84 E6        30.15R WCI   5
6HR MIN TEMP:  11; 6HR MAX TEMP:  15; 6HR PCP: TRACE;

HOUGHTON       MOCLDY    13   7  77 E5        30.20R WCI   5
6HR MIN TEMP:  10; 6HR MAX TEMP:  13; 6HR PCP: TRACE;

COPPER HARBOR    N/A     13   9  84 W3        30.26R
6HR MIN TEMP:  11; 6HR MAX TEMP:  14; 6HR PCP:  0.02;

IRONWOOD       LGT SNOW   7   4  87 CALM      30.17R FOG
6HR MIN TEMP:   7; 6HR MAX TEMP:   9; 6HR PCP:  0.02;

$$

ABBREVIATIONS USED IN REMARKS
   TC - TEMPERATURE IN CELSIUS
  WCI - WIND CHILL INDEX
   HX - HEAT INDEX
  VSB - VISIBILITY





USA.gov is the U.S. government's official web portal to all federal, state and local government web resources and services.